Orbital Elements
Epoch 2022 Jan. 21.0 TT = JDT 2459600.5
T 2020 Jan. 12.76083 TT Rudenko
q 2.3444208 (2000.0) P Q
n 0.07046167 Peri. 277.71789 +0.82615800 -0.55787280
a 5.8054258 Node 116.22325 +0.54541901 +0.75666104
e 0.5961673 Incl. 5.05217 +0.14135439 +0.34094282
P 14.0
From 1901 observations 1977 Aug. 19-2022 Feb. 10, mean residual 0".8.
|